TimeEDT,TemperatureF,Dew PointF,Humidity,Sea Level PressureIn,VisibilityMPH,Wind Direction,Wind SpeedMPH,Gust SpeedMPH,PrecipitationIn,Events,Conditions,WindDirDegrees,DateUTC
1:53 AM,55.0,54.0,96,30.14,10.0,Calm,Calm,-,N/A,,Clear,0,2013-08-16 05:53:00
2:53 AM,54.0,53.1,97,30.14,10.0,Calm,Calm,-,N/A,,Clear,0,2013-08-16 06:53:00
3:53 AM,54.0,52.0,93,30.14,10.0,Calm,Calm,-,N/A,,Clear,0,2013-08-16 07:53:00
4:53 AM,53.1,52.0,96,30.14,7.0,Calm,Calm,-,N/A,,Clear,0,2013-08-16 08:53:00
5:53 AM,51.1,50.0,96,30.15,8.0,Calm,Calm,-,N/A,,Clear,0,2013-08-16 09:53:00
6:53 AM,52.0,51.1,97,30.16,7.0,Calm,Calm,-,N/A,,Clear,0,2013-08-16 10:53:00
7:53 AM,55.9,53.1,90,30.17,10.0,WSW,3.5,-,N/A,,Clear,250,2013-08-16 11:53:00
8:53 AM,60.1,55.9,86,30.17,10.0,Calm,Calm,-,N/A,,Clear,0,2013-08-16 12:53:00
9:53 AM,66.0,55.0,68,30.18,10.0,Calm,Calm,-,N/A,,Clear,0,2013-08-16 13:53:00
10:53 AM,70.0,55.9,61,30.18,10.0,Calm,Calm,-,N/A,,Clear,0,2013-08-16 14:53:00
11:53 AM,73.9,55.0,52,30.17,10.0,Variable,4.6,-,N/A,,Scattered Clouds,0,2013-08-16 15:53:00
12:53 PM,73.0,53.1,49,30.17,10.0,Variable,6.9,-,N/A,,Scattered Clouds,0,2013-08-16 16:53:00
1:53 PM,73.9,53.1,48,30.15,10.0,Calm,Calm,-,N/A,,Overcast,0,2013-08-16 17:53:00
2:53 PM,73.9,54.0,50,30.16,10.0,SSE,4.6,-,N/A,,Scattered Clouds,150,2013-08-16 18:53:00
3:53 PM,73.9,53.1,48,30.14,10.0,East,4.6,-,N/A,,Scattered Clouds,90,2013-08-16 19:53:00
4:53 PM,73.9,53.1,48,30.15,10.0,East,6.9,-,N/A,,Mostly Cloudy,90,2013-08-16 20:53:00
5:53 PM,73.9,53.1,48,30.15,10.0,ESE,6.9,-,N/A,,Clear,110,2013-08-16 21:53:00
6:53 PM,73.0,53.1,49,30.15,10.0,East,4.6,-,N/A,,Clear,90,2013-08-16 22:53:00
7:53 PM,70.0,57.0,63,30.16,10.0,SSE,4.6,-,N/A,,Clear,150,2013-08-16 23:53:00
8:53 PM,66.0,57.9,75,30.17,10.0,SSE,3.5,-,N/A,,Clear,160,2013-08-17 00:53:00
9:53 PM,62.1,59.0,90,30.20,10.0,NNW,3.5,-,N/A,,Clear,340,2013-08-17 01:53:00
10:53 PM,61.0,57.9,90,30.20,10.0,NNW,3.5,-,N/A,,Clear,330,2013-08-17 02:53:00
11:53 PM,59.0,57.0,93,30.21,10.0,Calm,Calm,-,N/A,,Clear,0,2013-08-17 03:53:00